Theta_e
324 324 324 323 321 321 320 319 317 316 316 316 316 315 314 313 314 314 313 312 310 308 309 310 309 307 307 307 308 308 308 308 308 307 306 306 306 306 306 306 306 306 306 307 307 307 307 308 308 308 308 309 309 309 310 311 312 313 316 321 324 326 326 327 327 327 327 327 327 327 327 327 326 327 327 327 327 327 326 326 325 325 325 325 325
324 324 324 323 322 321 321 320 318 317 317 317 316 314 313 313 313 313 313 311 309 309 309 309 308 308 308 309 309 309 308 308 307 307 306 306 306 306 306 306 306 306 306 306 306 306 307 307 307 308 308 308 309 309 309 310 311 312 313 316 319 323 325 326 327 326 326 326 326 327 327 327 327 327 327 327 327 326 326 326 326 325 325 325 324
325 325 324 323 323 322 321 320 319 318 317 316 315 314 314 313 313 313 312 310 309 309 309 308 308 309 309 309 309 309 308 307 306 306 306 306 306 305 306 305 305 305 305 306 306 306 306 306 307 307 307 308 309 309 309 309 310 311 311 312 314 317 321 324 326 326 326 326 326 326 327 327 327 328 327 328 327 326 327 326 326 326 325 324 323
326 326 325 324 323 322 321 321 319 318 317 316 315 314 314 313 312 312 311 310 309 309 309 309 309 309 309 309 309 308 307 306 306 305 305 305 305 305 305 305 305 305 305 305 305 305 306 306 306 306 306 307 308 308 309 309 309 310 310 311 312 314 316 320 324 325 326 326 326 326 327 327 327 327 327 327 327 327 327 327 326 326 325 324 322
326 326 325 324 323 322 321 320 319 318 317 316 315 314 313 312 312 311 311 310 310 309 310 310 310 310 309 308 307 306 305 305 304 304 304 304 304 304 304 304 304 304 304 305 305 305 305 305 306 306 306 306 307 307 308 309 309 309 310 310 311 312 314 316 319 322 324 325 326 326 327 327 327 327 327 327 327 327 326 326 326 325 324 322 321
326 325 324 323 322 322 321 320 319 318 317 316 315 314 313 312 312 312 311 310 310 310 310 310 310 309 308 307 306 305 304 304 304 304 304 304 304 304 304 303 303 303 303 303 304 304 305 305 305 305 305 305 305 306 307 307 308 308 309 310 310 311 312 313 314 316 319 321 323 325 326 326 326 327 327 327 326 326 325 324 324 323 322 321 319
325 324 323 322 321 321 321 320 319 318 317 316 315 314 313 313 312 312 311 311 310 310 310 310 309 308 307 306 305 304 304 304 304 303 303 303 303 302 302 302 301 302 302 302 302 302 303 303 303 303 304 304 304 304 304 305 305 305 306 307 308 309 311 311 311 311 313 316 318 321 324 326 326 326 326 326 326 325 323 322 322 322 321 320 319
324 323 322 321 321 321 320 319 318 317 317 316 315 314 313 313 312 312 311 310 310 310 310 308 307 306 306 305 304 304 304 303 303 302 302 301 301 300 300 299 299 299 300 300 300 301 301 301 301 302 302 302 303 303 303 303 303 303 304 304 305 306 308 309 310 310 311 313 314 316 319 322 324 324 324 324 323 322 322 322 321 321 322 321 320
323 322 321 321 321 321 319 318 318 317 316 315 314 314 313 312 312 311 311 310 310 309 308 307 306 306 305 304 304 303 303 302 302 301 300 300 299 299 298 298 297 298 298 299 299 299 299 300 300 300 301 301 302 302 302 302 302 302 303 303 304 304 305 306 307 309 309 311 312 313 315 318 321 322 323 323 322 322 323 322 320 321 321 320 318
323 322 321 321 320 320 318 318 317 317 316 315 314 314 313 312 312 311 311 310 309 308 307 306 305 305 304 303 303 302 301 301 300 300 299 299 298 298 298 297 298 298 298 298 298 298 298 298 299 299 299 300 300 301 301 301 301 302 302 302 303 303 304 304 305 306 308 309 310 311 313 315 317 320 322 322 322 323 322 321 320 319 318 315 315
322 321 321 320 319 318 317 317 316 316 315 315 314 313 312 312 311 311 310 309 308 307 306 305 304 304 303 302 301 301 300 300 299 299 298 298 298 297 297 298 298 298 298 298 298 297 297 297 298 298 298 298 299 299 300 300 301 301 301 301 301 302 303 303 304 305 306 307 309 310 312 313 314 317 320 321 321 322 322 321 320 318 315 313 313
319 319 319 319 318 317 316 316 316 315 314 314 313 312 312 311 310 309 308 307 306 305 304 304 303 302 302 301 300 300 299 299 298 298 297 297 297 297 297 297 297 297 297 297 297 297 297 297 297 297 297 297 297 298 298 299 299 300 300 300 301 301 302 302 303 303 304 305 307 309 310 312 313 314 317 319 320 321 321 320 319 317 314 314 314
316 317 317 317 317 316 316 315 315 314 314 313 312 312 311 310 309 308 307 306 305 304 303 302 302 301 300 299 299 298 298 297 297 297 297 297 297 297 297 297 297 297 296 296 296 296 296 296 296 296 296 296 297 297 297 298 298 298 299 300 300 300 301 301 301 302 303 305 307 308 309 310 312 313 314 317 319 320 319 318 318 317 315 314 315
316 316 316 316 316 315 315 315 315 314 314 312 311 310 309 308 307 306 306 304 303 302 302 301 300 299 298 298 297 297 297 297 297 296 296 296 296 296 296 296 295 295 295 295 295 295 295 295 295 295 296 296 296 296 296 297 297 297 298 298 299 299 300 300 301 301 302 304 305 305 306 308 309 311 312 314 317 319 318 317 316 316 314 313 314
315 315 315 315 315 314 314 315 314 313 312 311 309 308 308 307 306 304 303 303 302 301 300 299 299 298 297 296 296 295 295 295 295 295 295 295 295 295 295 294 294 294 294 294 295 295 295 295 295 295 295 295 295 295 295 296 296 297 297 298 298 298 299 299 300 300 301 302 302 303 304 305 306 307 307 309 311 315 318 318 317 316 313 311 311
314 314 314 314 314 314 314 313 312 311 310 308 307 306 305 304 303 302 301 301 300 299 299 298 297 295 294 293 293 293 293 293 293 294 294 294 294 294 294 294 293 293 294 294 294 294 294 294 294 294 294 294 294 294 294 295 295 296 296 297 297 298 298 298 299 299 300 300 300 301 302 302 303 303 304 305 307 310 315 317 316 314 313 310 308
314 313 312 313 313 312 312 310 309 308 306 305 304 303 302 302 301 301 300 300 299 298 298 297 295 293 292 292 292 292 292 292 292 293 293 293 294 293 293 293 293 293 293 293 293 292 292 292 293 293 293 293 293 294 294 294 295 295 296 296 297 297 298 298 298 298 298 299 300 300 300 300 301 301 302 303 305 308 312 313 313 312 311 309 306
312 312 311 312 311 310 308 307 306 305 304 303 303 302 302 301 300 300 299 299 299 298 297 296 293 292 291 292 293 293 293 292 292 292 293 293 293 293 293 293 292 292 292 292 291 291 291 291 292 292 292 292 292 293 293 294 294 295 295 296 296 297 297 297 298 298 298 298 299 299 300 300 300 300 302 304 307 310 312 312 312 312 310 309 307
311 310 310 309 308 306 305 304 304 303 303 303 302 301 301 300 299 299 299 299 298 297 296 294 293 292 293 293 293 293 292 292 292 292 292 292 293 293 293 293 292 292 291 291 291 291 291 291 291 291 291 291 291 292 292 293 293 294 295 295 296 296 297 297 297 298 298 299 299 299 299 300 300 302 305 307 309 311 313 313 313 312 310 310 309
309 308 307 306 305 304 304 303 303 302 302 301 300 300 300 299 299 299 299 299 298 297 295 295 294 294 294 293 292 291 291 291 292 292 292 292 292 292 292 292 291 291 291 291 291 290 290 290 290 290 290 290 291 291 291 292 293 293 294 295 295 296 296 296 297 298 298 299 299 299 300 300 301 303 305 306 307 310 312 313 314 313 312 311 309
306 306 305 304 303 303 303 302 301 300 299 299 300 300 300 300 300 299 299 298 297 296 296 295 295 294 293 292 291 291 291 291 291 291 291 291 291 291 291 291 291 291 291 291 290 290 290 290 290 290 290 290 290 291 291 291 292 292 293 294 295 295 296 296 297 297 298 298 299 299 299 300 300 301 301 302 304 307 309 312 314 314 314 313 310
304 304 303 302 302 301 301 300 300 299 299 299 300 300 300 299 299 298 298 297 297 296 296 295 295 294 292 291 291 290 290 291 291 291 291 291 291 291 291 291 290 290 290 290 290 290 290 290 290 290 290 290 290 290 290 291 291 292 292 293 294 295 295 296 296 297 297 297 298 298 298 298 299 299 299 300 302 304 307 310 313 314 314 315 313
302 302 301 301 301 300 300 299 298 298 299 299 298 298 298 298 298 298 297 297 296 296 295 295 295 293 292 291 290 290 290 291 291 291 291 290 290 290 290 290 290 290 290 290 290 290 290 290 290 289 289 289 290 290 290 291 291 291 292 292 293 294 295 295 296 296 296 297 297 297 297 297 298 298 299 299 300 302 305 308 311 313 314 315 315
302 301 301 301 300 299 299 298 298 298 298 298 298 297 297 297 297 297 297 296 296 296 295 295 294 293 291 290 290 290 290 291 291 290 290 290 290 290 290 290 290 290 290 290 290 290 290 290 289 289 289 289 290 290 290 290 291 291 291 292 293 294 295 295 296 296 296 296 296 297 297 297 297 298 298 299 299 301 303 306 310 312 313 313 312
301 301 300 300 299 299 298 298 298 298 298 298 298 298 297 297 297 297 297 296 296 295 295 295 294 292 291 290 290 290 290 290 290 290 290 290 290 290 290 290 290 289 289 289 289 289 289 289 289 289 289 289 289 289 289 290 290 290 290 291 291 292 294 295 295 296 296 296 296 296 297 297 297 298 298 298 299 300 302 305 309 311 311 310 309
300 300 300 299 298 298 298 298 298 298 298 298 298 298 298 297 297 297 296 296 295 295 294 294 293 291 290 290 289 290 290 290 290 290 290 290 290 289 289 289 289 289 289 289 289 289 289 289 289 289 289 289 289 289 290 290 290 290 290 290 291 291 293 294 295 295 296 296 296 296 297 297 297 298 298 298 299 300 301 304 308 310 310 309 308
300 299 299 298 298 298 298 299 298 298 298 298 298 298 297 297 297 296 296 295 295 294 294 294 292 291 290 290 289 289 290 290 290 290 290 290 289 289 289 289 289 289 289 289 289 289 289 289 289 289 289 289 289 289 290 290 290 290 290 291 291 291 292 293 295 295 296 296 296 296 297 297 298 298 298 299 300 301 302 305 308 308 308 308 306
299 298 298 298 298 298 298 299 298 298 298 298 298 297 297 297 296 296 296 295 295 294 294 293 292 291 290 289 289 289 290 290 290 290 290 289 289 289 289 289 289 289 288 288 288 288 289 289 289 289 289 289 289 289 290 290 290 290 290 291 291 291 292 293 294 295 295 295 296 296 297 298 298 298 299 300 301 303 304 306 308 307 306 306 304
298 299 299 299 299 299 299 299 299 298 298 297 297 297 297 296 296 296 295 295 294 294 294 293 292 292 291 290 289 289 289 290 290 290 289 289 289 289 289 288 288 288 288 288 288 288 288 289 289 289 289 289 289 290 290 290 291 291 291 291 291 291 292 293 293 294 295 295 296 296 297 298 298 299 299 300 302 304 306 306 306 305 305 304 302
299 299 299 299 299 299 299 299 299 298 298 297 297 297 297 296 296 295 295 294 294 294 294 293 293 293 291 291 290 290 289 290 290 289 289 289 289 288 288 288 288 288 288 288 289 288 289 289 289 289 289 290 290 291 291 291 291 291 291 291 291 292 292 293 294 294 294 295 296 296 297 298 298 299 300 301 303 305 305 306 305 304 303 303 300
299 300 299 299 299 299 299 299 298 298 297 297 297 297 296 296 295 295 294 294 294 294 294 294 294 293 292 291 291 290 290 290 290 289 289 288 288 288 288 287 288 288 288 289 289 289 289 289 290 290 291 291 291 291 292 292 292 292 292 292 292 292 292 293 294 294 295 295 296 296 297 298 298 299 300 302 303 303 304 304 304 303 303 302 299
300 300 299 299 299 299 299 299 298 298 297 297 297 297 296 296 295 294 294 294 294 294 294 294 294 293 293 292 291 290 290 290 290 289 288 288 288 288 287 287 288 288 288 289 289 289 289 290 290 291 291 292 293 293 292 292 292 292 293 293 293 293 293 293 294 295 296 296 296 297 298 298 299 300 301 302 302 301 301 302 302 302 301 300 299
300 300 299 300 300 299 299 299 298 298 297 297 297 296 296 296 295 294 294 294 294 294 294 293 293 293 292 292 291 290 290 290 290 289 288 288 288 287 287 287 287 288 288 288 289 289 289 289 290 290 291 291 293 293 294 293 293 293 293 294 294 294 294 294 295 296 297 298 298 298 299 299 300 300 301 301 300 300 300 300 300 300 299 298 297
300 300 299 299 299 299 299 299 298 298 297 297 297 296 295 295 295 294 294 294 294 294 293 293 292 292 292 292 291 290 290 290 289 289 288 288 287 287 287 287 287 287 288 288 288 288 289 289 289 289 290 290 291 293 294 294 294 294 294 294 295 295 295 295 296 296 298 298 299 299 299 300 300 300 299 298 298 299 299 299 298 298 297 296 295
300 299 299 299 299 299 299 298 298 297 297 297 297 296 295 295 294 294 295 295 294 294 293 293 292 292 292 291 291 290 290 290 289 289 288 288 287 287 287 287 287 287 287 288 288 288 288 288 289 289 289 289 290 292 294 295 296 295 295 296 296 296 296 296 296 297 297 298 298 299 299 300 299 299 298 297 297 297 297 297 297 297 296 295 295
299 299 299 299 299 298 298 298 298 298 298 297 297 296 295 295 294 294 294 295 294 294 293 293 292 291 291 291 290 290 290 290 289 289 288 288 287 287 287 287 287 287 287 287 287 287 288 288 288 288 289 289 290 291 293 295 296 296 296 297 297 297 297 297 297 297 298 298 298 299 299 299 298 297 297 296 296 296 296 296 296 296 295 294 294
300 300 300 299 298 298 299 299 299 299 298 297 297 296 295 295 294 294 294 295 294 294 294 293 293 292 291 291 290 290 290 290 289 289 288 287 287 287 287 287 287 287 287 287 287 287 287 287 288 288 288 289 290 291 292 294 295 296 296 296 297 297 297 297 298 298 298 298 298 298 298 297 297 296 296 295 295 295 295 295 295 294 294 294 294
300 300 300 299 298 298 299 300 300 300 298 297 297 296 295 295 295 294 294 294 294 294 294 294 293 292 291 291 290 290 291 290 289 289 288 287 287 287 287 287 286 286 287 287 287 287 287 287 287 288 288 288 289 290 291 292 293 295 295 296 296 296 297 297 297 298 298 297 297 297 296 296 295 296 296 295 294 294 294 294 293 293 293 293 293
301 301 300 299 299 299 299 300 300 300 298 297 297 296 296 296 296 295 295 294 294 294 294 294 293 292 291 291 290 290 290 290 289 289 288 287 287 287 286 286 286 286 286 286 286 286 287 287 287 287 288 288 289 290 291 291 292 293 294 295 295 296 296 296 296 296 296 296 295 295 295 295 295 295 295 294 293 293 293 293 293 293 293 292 292
302 301 301 301 300 299 299 300 300 299 298 297 297 296 296 297 296 296 295 295 294 294 294 294 293 292 291 291 290 290 290 290 289 289 288 287 287 287 286 286 286 286 286 286 286 286 286 286 287 287 287 288 288 289 290 291 291 292 293 294 294 294 295 295 295 294 294 294 294 294 294 294 294 293 293 293 293 293 293 292 292 292 292 291 290
302 302 302 301 301 300 300 300 300 299 298 297 297 297 297 297 297 297 296 295 294 294 294 294 293 292 291 291 290 290 290 290 289 288 288 287 287 287 286 286 286 286 286 286 286 286 286 286 286 286 287 287 288 288 289 290 290 291 291 292 293 293 293 294 293 293 293 293 293 293 293 293 293 292 292 292 292 292 292 291 291 290 290 290 290
302 302 301 301 300 300 300 299 298 298 297 297 297 297 297 297 297 296 296 295 294 294 294 294 293 292 292 291 290 290 291 290 289 289 288 287 287 286 286 286 286 286 286 286 286 286 286 286 286 286 286 287 287 288 288 289 289 290 290 291 291 291 292 292 292 292 292 292 292 292 292 292 292 292 291 291 291 291 290 290 290 289 290 290 290
301 301 300 299 298 298 298 297 297 297 297 297 297 296 296 296 296 296 295 295 294 294 294 294 293 293 292 291 290 290 290 290 290 289 288 287 287 286 286 286 286 286 286 286 286 286 286 286 286 286 286 286 287 287 287 288 288 289 289 290 290 290 290 291 291 291 292 291 291 291 291 291 291 291 291 291 290 290 289 289 289 289 290 290 289
300 299 298 297 297 296 296 296 296 296 296 297 297 296 296 296 296 296 295 295 294 294 294 293 293 293 292 291 291 290 290 290 290 290 289 288 287 286 286 286 286 286 286 286 286 286 286 286 286 286 286 287 287 287 288 288 288 288 288 289 289 289 289 290 290 291 291 291 290 290 290 290 290 290 290 290 290 289 289 290 290 290 289 289 289
298 297 297 296 296 295 295 295 295 295 296 296 296 296 296 296 295 295 295 294 294 294 294 293 293 293 292 291 291 290 290 290 290 290 290 289 288 287 286 286 286 286 286 286 286 286 286 286 286 286 286 286 287 287 287 288 288 288 288 288 289 289 289 289 290 290 290 290 290 290 290 290 290 289 289 289 289 289 289 290 290 289 289 289 289
297 296 296 295 295 294 294 293 294 294 294 295 295 295 295 295 294 294 293 293 293 293 293 293 293 293 292 291 291 290 290 290 290 290 290 290 289 288 287 287 286 286 286 286 286 286 286 286 286 286 286 286 287 287 287 287 288 288 288 288 288 289 289 289 289 289 290 290 290 290 290 289 289 289 289 289 289 289 289 289 289 289 289 289 289
295 295 295 294 294 293 293 293 292 292 292 292 293 293 293 293 293 292 292 292 292 292 292 292 292 292 292 291 291 291 290 290 290 290 290 290 290 289 288 288 287 287 286 286 286 286 286 286 286 286 286 286 287 287 287 287 288 288 288 288 288 289 289 289 289 289 289 289 289 289 289 289 289 289 289 289 289 289 289 289 289 289 289 289 289
294 293 293 293 292 292 292 291 291 290 290 290 290 291 291 291 291 291 291 291 291 291 291 291 291 291 291 291 291 291 291 290 290 290 290 290 290 289 289 288 288 287 287 287 286 286 286 286 287 287 287 287 287 287 287 287 288 288 288 288 288 289 289 289 289 289 289 289 289 289 289 289 289 289 289 289 289 289 289 289 289 288 288 288 288
292 292 291 291 291 290 290 289 289 288 288 288 288 288 288 289 289 289 289 289 289 289 289 289 289 289 290 290 290 291 291 291 290 290 290 290 290 290 289 289 288 288 288 287 287 286 286 286 287 287 287 287 287 287 287 287 287 288 288 288 288 289 289 289 289 289 289 289 289 289 289 288 289 289 289 289 289 289 289 289 289 289 288 288 288
291 291 290 290 290 289 289 288 288 287 287 286 286 286 286 286 287 287 287 287 287 287 287 287 287 288 288 289 289 289 290 290 290 289 289 289 290 290 289 289 288 288 288 288 288 287 287 287 287 287 287 287 287 287 287 287 287 287 288 288 288 289 289 289 289 289 289 289 289 289 288 288 288 289 289 289 289 289 289 289 289 288 288 288 288
290 289 289 289 289 288 288 287 287 286 286 286 286 286 285 285 285 285 285 285 285 285 285 285 286 286 287 287 288 288 288 288 289 289 289 289 289 290 290 289 289 289 289 289 288 288 287 287 287 287 287 287 287 287 287 287 288 288 288 288 288 288 289 289 289 289 289 289 289 289 289 289 289 289 289 289 289 289 289 289 289 288 288 288 288
Wind_Speed
35 36 35 34 34 33 31 30 29 28 27 25 25 24 23 22 21 20 18 15 13 11 10 10 10 9 9 9 9 10 10 10 10 11 12 14 14 14 14 14 16 18 20 21 21 22 23 24 25 25 24 24 25 25 24 24 23 23 22 22 25 24 24 22 13 13 23 25 23 24 23 22 23 24 26 28 28 30 31 31 32 35 38 39 39
35 36 35 34 34 33 32 30 29 28 27 26 24 23 22 21 20 19 17 14 12 11 10 10 9 9 9 9 9 9 10 11 11 13 14 15 15 14 13 14 15 17 19 21 21 21 22 23 24 25 24 25 25 24 24 24 23 22 22 21 22 24 24 24 20 15 20 24 23 24 25 25 25 27 28 29 28 29 31 31 31 33 37 39 40
36 35 35 35 34 34 32 31 29 28 27 26 25 23 21 20 19 17 15 12 11 11 10 10 9 9 9 9 9 10 11 12 13 14 14 15 15 15 15 16 17 19 20 20 21 21 21 22 23 23 24 25 25 25 25 25 23 22 23 23 22 24 24 24 24 20 19 23 23 22 24 24 25 26 27 27 27 27 29 29 29 30 34 38 40
36 36 36 36 35 34 33 31 30 29 28 27 25 23 21 19 18 16 14 12 11 11 10 9 9 9 10 10 10 10 10 11 11 12 12 13 15 16 17 19 20 20 21 21 21 21 21 22 23 23 23 24 25 25 25 25 25 23 23 23 22 23 23 23 24 23 22 23 22 21 23 24 25 26 26 26 26 27 28 28 28 30 33 37 38
37 37 37 36 35 35 34 32 31 30 30 28 26 24 21 19 17 15 13 12 11 10 10 10 10 10 9 9 9 9 10 10 10 10 10 10 12 14 15 17 18 19 20 20 21 21 21 21 21 19 19 20 21 23 23 23 24 25 24 23 23 23 23 22 22 23 23 23 23 22 22 24 25 25 27 28 27 26 26 27 28 30 32 35 37
37 38 37 37 36 36 35 33 32 31 30 28 26 23 21 19 17 15 13 12 11 10 10 10 10 10 9 9 10 10 11 11 10 10 10 10 12 13 14 16 17 18 18 18 18 19 19 19 19 18 19 20 20 21 21 21 21 22 22 23 23 23 24 23 21 22 21 22 24 23 22 23 24 25 27 28 28 28 26 25 25 28 31 32 33
36 36 36 35 35 35 35 34 33 31 29 27 24 22 20 19 17 14 13 11 10 10 10 10 10 9 10 11 12 13 13 12 12 12 13 15 17 18 20 21 22 22 22 20 19 19 19 20 20 22 22 22 23 23 23 23 23 23 23 23 23 22 23 24 24 22 20 21 23 23 21 21 24 26 27 27 27 26 24 23 23 26 28 28 30
33 33 32 32 33 34 34 33 31 29 27 24 22 21 19 18 16 13 12 11 11 11 11 10 10 10 12 14 14 14 14 13 14 15 17 20 21 23 24 25 26 26 25 25 24 23 23 22 22 23 23 23 23 23 24 25 26 27 26 25 24 22 22 22 23 21 19 19 20 22 22 19 20 23 24 22 21 21 24 27 27 27 29 29 30
33 33 32 31 32 32 32 30 29 27 25 23 22 21 19 17 15 13 12 12 12 11 11 10 11 13 14 15 15 14 14 15 16 18 20 22 23 24 25 26 26 26 25 25 25 25 25 25 24 24 24 24 24 24 25 26 27 27 27 26 25 24 23 22 21 21 19 17 19 20 20 19 18 18 20 21 22 25 28 29 26 27 29 28 27
34 34 33 32 31 30 29 28 27 25 24 23 22 20 18 16 14 13 13 12 12 11 11 11 12 14 14 14 14 14 15 17 19 21 22 23 24 24 25 24 24 24 25 25 25 26 25 25 25 25 25 26 26 26 27 28 28 28 28 27 27 27 26 23 21 20 18 16 17 18 17 17 18 18 19 24 28 28 27 27 26 24 22 19 19
35 34 32 31 29 28 27 26 25 25 24 22 21 18 16 14 14 13 13 12 12 11 11 11 12 13 13 13 13 14 16 18 21 23 24 24 24 24 24 24 24 24 25 26 26 26 26 25 25 25 25 26 26 27 28 29 30 30 30 30 29 29 27 26 24 21 19 18 18 18 17 17 20 20 20 22 26 28 29 31 30 25 21 17 14
29 30 30 29 27 27 27 26 25 24 23 21 19 16 15 14 13 13 13 12 11 10 10 11 11 11 11 11 12 15 17 20 22 23 23 23 23 23 23 23 24 25 25 25 26 26 26 26 26 25 25 25 25 26 27 28 29 30 31 32 32 31 30 28 27 25 23 21 21 21 19 19 22 22 21 21 23 26 30 31 30 27 24 23 19
22 23 25 27 28 28 27 27 25 24 22 19 17 15 14 13 12 13 12 11 9 9 9 9 9 8 8 11 13 16 18 20 21 22 22 22 21 21 22 23 25 26 26 26 26 27 27 27 27 27 27 26 26 26 26 28 29 29 30 31 32 33 32 31 30 29 27 24 23 23 21 19 21 23 22 21 22 23 24 25 28 30 29 29 29
25 25 26 26 28 28 29 28 26 23 20 17 15 13 12 12 12 11 10 8 8 8 7 6 5 7 9 12 15 17 18 20 21 21 22 22 22 23 24 25 27 28 28 28 28 28 28 28 28 28 27 27 27 26 27 28 29 29 30 31 32 33 33 33 32 30 29 27 26 27 26 22 22 23 21 21 22 23 23 23 25 27 26 24 25
28 27 26 26 28 28 29 28 25 22 19 16 13 12 11 11 9 8 6 5 5 5 4 4 5 8 11 13 15 17 19 21 23 23 24 24 24 25 26 27 27 28 28 27 27 27 27 27 27 28 28 28 27 27 27 28 29 30 31 31 33 33 34 33 32 31 31 30 29 30 30 27 25 26 24 24 24 25 27 30 29 26 22 18 16
27 26 26 26 27 27 26 25 23 20 17 14 12 10 9 8 8 6 4 3 3 3 3 4 6 9 12 15 17 20 22 24 24 25 26 26 26 27 27 27 27 27 27 26 26 26 26 26 27 28 28 29 28 28 28 28 30 31 32 33 33 34 35 34 32 32 33 34 34 34 35 34 32 31 31 29 27 27 29 29 29 26 22 17 14
28 28 27 26 26 26 25 23 21 19 16 13 12 12 11 8 6 4 3 3 3 3 4 5 8 12 16 19 21 23 25 27 27 26 27 27 28 29 28 28 27 27 27 27 27 27 27 27 27 28 29 29 29 29 28 29 31 32 33 34 33 34 35 33 30 32 33 34 36 37 38 39 38 36 35 33 30 29 28 25 26 25 23 15 11
30 30 29 27 26 26 25 23 20 18 16 15 14 11 8 5 4 2 1 2 3 4 6 9 11 15 18 21 22 24 27 29 28 28 28 27 28 29 29 29 28 28 28 28 29 29 29 29 28 28 30 30 29 29 28 29 31 32 32 32 32 33 33 30 29 31 31 32 34 35 35 36 37 35 34 32 30 28 27 29 29 28 25 19 15
30 30 29 29 28 26 23 21 20 18 15 13 10 7 4 3 1 1 3 4 5 6 10 13 14 16 18 20 22 25 28 30 29 29 28 28 27 28 29 29 28 28 28 29 30 29 29 29 28 28 30 31 31 30 30 30 32 33 32 32 32 32 30 28 29 30 28 29 31 32 32 32 30 28 27 27 28 27 27 31 34 32 29 26 23
31 32 32 31 28 26 24 21 19 17 13 10 6 4 2 0 2 4 6 7 6 7 12 15 15 16 17 19 22 25 28 30 29 28 28 27 27 27 27 27 27 28 29 29 30 30 30 30 30 30 32 33 33 32 31 31 33 34 33 33 33 32 29 29 30 29 27 28 29 29 30 29 27 27 27 26 27 26 25 29 36 38 34 30 29
35 36 35 32 28 26 24 22 19 15 11 8 5 3 2 3 5 6 7 7 7 9 13 14 15 16 17 19 22 26 27 28 28 28 27 27 26 25 26 27 27 28 30 30 31 32 31 31 32 33 33 33 33 33 33 33 33 34 35 35 35 34 32 32 31 29 29 29 29 28 29 29 29 30 30 28 28 27 25 26 34 41 40 35 32
37 36 35 33 29 26 23 20 17 14 10 8 6 4 4 4 5 7 7 7 9 12 14 15 15 16 17 20 23 26 28 27 27 27 27 26 25 25 26 27 28 29 31 33 33 32 32 33 34 34 34 34 35 35 35 35 35 37 38 37 38 38 37 36 34 31 30 30 29 30 31 31 31 31 30 29 28 27 26 26 31 40 44 43 40
37 35 33 31 27 24 22 19 16 13 10 7 4 2 4 5 6 8 7 8 10 13 15 15 15 15 17 21 24 27 28 27 27 27 27 26 25 25 26 28 30 31 33 35 35 35 36 37 37 36 36 37 38 38 38 37 37 37 38 38 38 39 40 39 36 33 31 29 29 30 31 30 30 29 29 29 28 28 27 26 29 37 43 46 46
36 35 32 29 26 24 22 19 16 14 11 7 5 3 4 7 8 8 8 8 11 13 15 15 14 14 17 22 25 27 28 29 28 27 26 26 27 27 28 29 30 31 33 35 35 36 37 38 38 38 38 38 39 39 40 40 40 40 39 39 39 38 39 39 36 32 30 29 28 28 28 29 29 28 29 28 27 27 27 26 28 34 40 43 43
35 33 30 28 26 25 22 19 16 14 11 9 7 4 5 9 9 8 8 9 10 13 16 15 13 13 17 21 25 28 29 29 29 28 27 27 27 27 28 30 31 32 34 35 35 37 39 40 41 41 41 41 42 42 43 43 43 43 43 42 41 39 37 37 34 31 29 28 27 27 28 28 29 29 29 28 26 26 27 26 27 30 34 34 34
33 31 29 28 26 23 21 18 15 13 11 9 7 5 6 9 9 8 9 9 11 14 16 14 12 13 17 21 24 27 29 29 29 28 27 26 27 28 29 31 32 33 34 35 37 39 40 40 41 41 40 40 40 41 41 41 40 40 40 40 40 39 36 34 31 29 28 27 27 27 27 27 29 29 28 27 28 28 27 26 25 26 29 30 28
33 31 30 27 23 20 18 16 15 13 12 11 8 6 6 7 8 8 9 9 11 14 14 13 11 12 16 20 23 26 29 29 28 28 27 27 28 30 31 32 33 33 34 35 36 37 38 38 38 38 38 39 39 39 39 39 38 36 36 35 36 36 36 34 32 29 28 28 27 27 27 27 27 28 28 27 28 28 27 26 26 26 28 30 27
32 30 27 23 20 17 16 16 16 14 13 10 7 6 6 7 7 7 8 9 11 13 13 12 11 12 16 19 22 25 27 28 28 29 29 30 31 32 32 33 33 33 33 35 36 37 37 37 37 37 37 37 37 36 36 35 35 35 34 33 33 34 35 35 34 33 31 29 28 27 26 25 26 28 28 27 27 27 26 27 28 29 30 30 25
30 26 22 19 17 16 15 16 16 15 13 10 6 4 5 5 5 6 7 9 11 13 13 13 12 13 15 18 21 23 27 29 31 31 31 30 31 32 32 33 33 34 34 35 36 36 36 35 34 32 32 31 30 30 29 29 29 30 31 32 31 32 33 33 33 33 32 31 29 27 26 25 27 28 27 26 27 27 26 27 29 29 29 29 26
26 22 18 16 16 16 15 15 16 15 12 9 5 4 5 3 2 5 8 10 11 13 14 15 14 15 16 18 22 25 28 32 33 32 31 30 30 31 32 33 33 33 32 31 31 31 31 31 30 28 27 26 25 25 25 25 24 25 27 29 30 30 31 32 33 33 33 31 31 30 28 27 27 26 26 26 26 26 27 29 31 30 29 27 24
23 19 16 15 15 16 15 16 17 15 11 7 5 5 4 1 2 5 8 10 11 13 14 16 16 16 17 20 24 28 31 34 34 32 30 30 31 31 32 32 31 29 28 27 27 25 24 24 24 23 23 24 24 24 24 22 22 23 24 26 28 30 31 32 32 32 32 32 32 31 30 28 27 26 26 27 27 26 26 28 30 30 30 29 27
20 17 14 14 15 15 16 18 17 14 10 7 5 3 2 2 4 6 8 10 12 13 14 15 17 17 18 21 25 29 33 35 34 31 30 30 31 31 32 31 29 26 25 24 22 21 20 20 20 20 21 22 23 24 23 21 21 22 22 22 25 28 31 32 33 32 32 33 32 31 30 29 28 27 28 29 27 26 26 27 28 28 27 26 26
19 18 16 16 16 15 17 19 16 12 11 9 5 3 1 2 5 7 9 11 12 12 13 14 16 17 18 21 24 28 33 35 33 30 30 30 31 32 31 29 26 24 22 21 20 19 20 20 20 21 22 22 22 22 22 22 21 22 22 22 23 26 29 31 31 31 31 31 31 31 30 29 28 28 28 28 28 27 27 27 26 26 25 23 24
20 20 18 17 16 15 17 17 14 11 12 9 5 3 1 2 4 7 9 11 12 13 15 16 16 16 18 20 23 27 33 34 32 30 29 30 31 31 29 28 26 24 22 20 20 20 20 20 21 22 23 22 22 21 20 21 21 21 22 23 24 25 26 28 29 30 30 29 28 28 28 28 28 28 27 26 25 26 26 26 26 26 25 25 25
22 20 17 14 13 13 15 14 12 11 12 8 4 3 2 1 4 6 8 9 10 11 15 18 18 18 18 20 22 28 33 33 31 29 29 30 31 30 28 26 27 26 25 23 22 22 22 22 22 23 23 23 23 21 18 18 20 20 22 23 24 24 25 25 27 30 31 29 28 27 28 28 29 29 27 26 26 25 25 25 26 26 27 27 27
22 18 14 12 11 11 13 12 10 10 10 7 4 3 4 3 3 5 7 8 9 10 14 18 19 19 19 19 22 28 33 33 30 28 28 29 30 29 26 24 24 24 25 25 25 24 24 24 24 24 24 24 23 21 16 13 14 16 19 21 22 23 24 26 28 30 30 30 28 28 28 27 27 28 26 25 25 25 25 25 26 26 28 29 29
20 16 13 12 11 12 13 11 8 6 6 6 5 4 5 4 3 6 7 8 9 11 14 17 19 20 21 21 23 28 33 33 30 28 28 29 29 27 25 24 24 24 24 24 25 25 25 25 25 25 24 23 22 19 14 9 7 7 10 13 14 16 18 21 25 27 28 28 27 27 27 26 26 27 27 26 25 24 25 26 27 27 29 31 31
16 14 12 11 11 12 11 9 6 4 6 7 7 5 4 4 5 7 8 8 9 10 14 17 19 20 21 21 23 28 33 33 32 30 30 30 29 28 27 26 25 24 24 25 26 26 25 26 26 25 24 23 22 19 15 10 5 2 3 5 6 9 11 14 18 22 25 25 25 26 26 26 26 27 29 28 27 27 27 29 30 30 30 31 30
13 13 12 11 10 9 8 7 4 4 7 9 8 5 3 5 7 9 10 10 8 9 13 17 18 19 19 18 22 28 31 31 30 29 28 28 27 27 27 26 26 26 26 26 27 27 26 26 26 25 24 24 23 20 16 12 8 3 3 6 9 11 13 15 17 19 21 23 24 25 26 27 27 28 29 29 30 30 29 30 32 33 31 29 28
13 12 11 9 8 8 8 6 3 3 7 9 8 6 6 9 10 10 11 10 8 8 12 16 17 18 17 17 20 26 29 28 27 26 25 25 26 26 26 26 26 26 26 26 27 27 26 25 25 25 25 24 23 21 18 14 11 8 8 10 12 14 15 17 19 20 22 23 25 26 27 27 28 28 28 28 30 33 33 31 30 32 32 31 32
13 11 8 8 8 8 7 3 1 0 2 3 4 5 7 8 8 9 10 9 6 6 11 15 15 16 16 16 18 23 26 26 26 25 24 24 24 24 25 26 26 26 26 27 27 27 25 25 25 26 25 25 24 22 20 18 15 13 12 13 14 16 18 19 20 23 24 24 25 26 27 28 30 31 30 30 31 33 34 32 31 32 34 34 35
10 9 8 8 7 6 4 4 5 7 7 7 6 6 6 6 5 5 6 6 4 5 10 14 14 15 16 15 16 21 25 26 26 25 24 23 23 23 24 25 25 25 26 26 26 26 25 25 25 26 26 26 25 23 22 20 18 16 16 16 16 17 19 21 23 25 26 26 26 27 28 29 31 32 33 34 33 33 34 34 34 35 35 34 35
12 12 13 12 11 11 11 12 13 14 14 14 13 12 11 9 8 7 6 5 3 4 9 13 14 15 16 16 16 19 23 25 26 26 24 23 23 22 23 24 24 25 25 26 26 26 25 25 25 26 26 26 25 24 23 22 20 19 18 19 19 18 19 22 24 26 28 28 28 28 29 31 32 33 33 35 35 35 35 35 35 36 35 35 35
20 20 20 20 19 19 19 18 18 18 18 17 16 15 14 12 12 11 11 8 4 3 7 12 13 14 15 16 17 18 20 22 25 26 25 23 22 21 21 22 23 23 24 24 25 25 25 25 26 26 27 26 25 24 23 22 21 21 20 20 21 20 20 21 23 26 29 31 30 30 31 32 32 32 32 34 37 37 36 36 35 36 35 35 35
25 24 23 23 22 22 21 20 20 19 19 18 18 17 15 15 16 16 16 14 10 9 10 12 12 12 14 15 16 18 19 20 22 25 25 24 22 21 20 21 21 22 22 23 23 24 25 25 26 26 27 27 26 25 24 23 23 23 22 22 23 22 21 21 23 26 29 31 32 31 32 32 32 32 32 33 36 36 36 35 36 36 35 35 34
24 24 23 23 22 21 21 20 19 19 19 19 18 17 16 16 17 18 18 17 16 15 15 15 14 14 14 15 15 16 17 18 19 22 24 24 22 21 20 20 20 20 21 21 22 23 24 25 26 26 27 27 27 26 26 24 24 24 24 24 24 24 24 25 26 28 30 31 32 33 33 32 32 31 32 33 34 35 35 35 35 36 36 35 34
22 22 22 22 21 21 20 19 18 19 19 19 17 16 15 15 16 17 17 17 17 17 17 17 17 16 17 17 17 16 16 16 16 18 21 23 22 21 20 20 19 19 20 20 21 22 22 23 25 26 27 27 28 28 27 27 26 25 25 26 26 26 27 28 29 30 31 32 33 35 35 34 33 32 33 34 35 35 35 35 34 34 35 34 33
22 23 23 22 22 21 20 19 19 19 18 18 17 16 15 14 15 16 16 17 17 18 18 18 18 18 18 18 18 18 18 17 16 15 17 20 21 21 19 19 19 18 19 20 21 21 22 22 23 25 27 28 28 29 29 28 28 27 27 27 27 28 29 30 31 32 33 34 35 36 36 36 35 33 33 34 34 35 35 35 34 34 34 34 33
23 23 23 23 23 22 21 20 20 19 19 18 17 16 15 15 15 15 16 16 16 17 17 18 18 19 18 18 19 19 20 20 19 16 14 16 18 19 18 18 18 18 19 20 20 21 21 22 23 24 25 26 28 29 29 29 29 29 28 28 27 28 30 32 33 34 34 35 36 36 36 36 36 35 34 34 35 35 36 36 35 35 35 34 33
22 22 23 23 22 21 20 20 20 19 18 17 17 16 16 15 14 15 16 16 16 16 17 17 17 18 18 19 20 20 21 21 21 19 15 12 13 16 17 16 16 17 18 18 18 19 20 21 22 23 24 24 25 26 28 28 28 28 28 27 27 28 30 31 32 34 35 36 36 37 37 36 36 36 35 35 34 35 35 35 34 34 33 31 30
20 21 21 21 20 19 19 19 19 18 17 16 17 17 17 15 14 14 15 15 14 15 15 16 16 17 18 18 19 20 21 21 21 21 18 13 10 11 14 15 14 14 15 16 18 18 19 20 21 22 23 24 25 25 26 26 25 25 25 26 27 28 29 30 31 32 33 34 35 36 36 36 36 36 34 34 33 33 33 33 33 32 31 30 29
Wind_Direction
206 208 212 213 214 215 218 221 223 225 225 225 225 224 223 220 218 218 218 222 227 232 237 245 257 270 279 285 289 291 293 296 299 300 303 304 302 299 300 303 305 307 309 310 309 310 310 307 303 301 302 303 304 306 306 306 306 307 308 298 281 269 257 249 248 264 269 269 267 265 262 257 256 257 255 256 260 261 258 255 249 245 245 247 242
206 209 211 212 215 217 219 221 223 224 225 225 226 224 223 221 219 220 222 226 232 237 243 253 266 276 280 283 286 289 296 301 305 308 308 305 301 298 298 300 303 304 304 306 308 310 310 309 307 306 303 299 299 301 303 304 305 303 304 305 297 285 271 256 250 257 267 268 264 264 266 262 259 259 257 257 258 254 250 249 249 247 245 243 239
208 209 211 213 216 217 219 220 221 223 224 224 223 222 220 218 218 222 226 230 236 243 252 263 272 278 281 283 286 292 299 304 307 309 308 307 304 300 300 301 303 303 301 301 304 307 308 307 307 309 309 304 298 296 297 298 300 301 300 301 301 299 291 272 256 249 256 265 263 258 260 258 255 257 256 255 255 252 249 250 249 248 245 242 238
208 209 210 213 214 215 217 218 219 220 222 221 220 219 218 218 220 225 229 234 242 250 258 269 276 278 281 285 290 295 300 305 309 311 311 312 310 308 308 307 305 303 300 299 300 301 302 302 304 306 308 307 304 300 297 293 293 295 297 299 299 300 302 295 276 260 253 259 260 254 255 256 253 254 254 251 250 251 250 249 248 246 244 240 236
208 209 209 209 210 213 214 215 216 218 219 219 219 218 219 221 224 228 233 239 247 256 264 270 274 277 281 285 287 291 298 303 305 307 311 314 314 314 315 314 312 309 304 301 299 298 297 297 299 302 305 307 309 309 306 301 296 293 292 292 294 295 299 303 299 288 275 268 264 257 252 253 255 254 251 248 247 247 245 244 243 241 240 237 233
208 208 207 205 206 209 211 212 214 215 216 216 217 218 219 221 223 227 234 242 250 258 265 270 273 276 277 279 283 290 296 299 297 297 301 303 306 307 308 309 310 310 309 306 304 301 299 297 296 297 299 301 304 307 310 310 308 305 300 297 295 293 291 293 299 302 299 293 288 278 258 246 247 249 247 243 241 240 239 236 235 236 235 232 228
206 206 204 203 203 206 208 210 212 212 213 213 213 214 215 216 220 226 233 242 250 258 265 270 271 273 275 279 287 292 292 289 289 292 298 302 305 306 306 306 304 302 301 300 299 297 295 296 297 296 296 296 297 298 300 303 306 307 308 308 306 302 296 293 294 296 299 301 301 296 282 258 243 243 245 242 236 235 232 225 224 228 230 229 227
204 204 202 200 202 206 208 209 210 209 209 209 209 209 209 212 218 224 231 239 249 257 262 265 266 270 278 283 286 286 285 286 292 298 303 307 309 309 308 306 303 300 298 296 294 293 292 292 293 293 293 293 293 293 294 296 299 301 301 303 306 307 304 302 300 297 294 293 294 297 298 285 256 242 240 234 224 224 226 223 221 221 223 226 228
201 201 201 201 204 207 208 207 206 204 204 204 204 204 207 212 218 224 231 239 245 251 254 257 263 271 277 280 280 281 285 292 298 304 307 309 309 309 307 305 303 301 300 299 297 295 293 292 290 289 290 289 289 289 289 290 292 294 295 296 298 300 302 302 301 299 296 290 288 290 294 296 281 253 234 222 219 225 226 223 222 223 221 219 221
198 199 199 201 204 206 205 203 200 199 199 200 200 203 206 211 219 226 233 239 243 247 248 253 262 269 271 272 274 281 289 296 302 305 308 310 310 309 306 303 302 301 300 299 298 296 295 293 291 290 288 287 287 286 286 286 286 287 288 289 289 291 293 294 294 295 293 286 284 285 283 286 286 272 251 237 232 231 225 219 222 222 212 207 216
197 196 197 198 200 201 200 197 195 194 195 196 197 199 204 211 219 227 235 243 244 240 243 252 260 263 264 268 277 289 297 304 308 309 311 312 310 308 305 302 300 298 296 294 293 294 294 293 292 291 289 287 287 285 284 284 284 284 284 283 283 283 283 283 284 285 286 283 280 279 274 273 279 280 271 256 244 234 225 220 220 213 197 194 210
197 192 192 193 193 195 194 191 190 191 192 192 192 196 203 212 221 234 243 241 234 233 243 253 255 256 263 278 293 304 309 312 313 313 312 312 309 306 302 300 299 297 295 293 292 291 292 292 291 290 289 288 287 285 284 282 281 281 281 281 280 279 277 276 276 277 277 278 276 273 270 270 274 275 274 271 261 246 232 223 216 209 202 202 206
198 191 190 189 188 189 189 187 187 188 189 190 192 196 204 217 231 242 240 228 226 237 246 248 251 265 289 307 314 316 317 317 316 314 311 308 306 302 298 297 297 296 295 294 292 291 290 291 290 288 287 287 286 285 283 283 282 280 279 278 276 275 274 272 273 273 272 271 270 270 270 271 273 273 274 277 272 255 240 229 219 212 209 211 214
198 195 189 186 185 184 184 183 183 185 186 187 191 199 213 227 234 232 224 221 232 237 235 243 273 307 320 325 324 321 320 318 315 312 308 305 302 299 298 297 297 296 295 293 291 289 288 287 286 286 286 285 284 284 283 282 282 280 278 276 273 272 272 270 270 269 268 266 265 268 271 271 273 275 277 280 275 261 249 244 234 221 216 220 222
185 183 180 180 180 180 179 178 176 177 179 184 194 208 217 219 211 203 204 218 225 219 228 275 311 327 332 332 330 327 325 322 316 311 307 304 302 300 299 298 297 296 294 292 290 288 287 286 285 284 284 283 282 282 281 280 280 278 275 273 271 271 269 268 267 266 265 265 265 267 268 269 272 276 279 283 283 275 265 256 246 235 229 231 231
170 169 169 172 174 173 174 171 167 169 173 179 186 188 180 171 164 163 171 182 192 219 265 297 325 341 345 344 341 337 335 331 323 315 309 305 303 301 299 298 297 296 294 292 290 288 286 285 284 284 283 283 281 280 279 278 276 275 273 272 271 270 268 266 266 266 265 265 265 265 267 269 271 273 276 279 282 283 274 254 235 225 221 221 222
166 164 163 164 167 169 169 164 158 159 162 160 155 150 145 140 139 143 155 174 212 257 287 318 340 345 346 345 341 336 333 330 325 317 311 306 302 300 299 297 296 294 292 291 289 287 286 284 283 283 282 282 281 279 277 275 273 271 270 270 270 268 267 267 267 267 267 266 266 266 267 269 270 271 273 274 277 280 270 243 219 211 208 205 205
163 161 160 162 165 162 158 153 147 143 143 142 139 136 133 129 132 142 181 238 262 296 323 330 333 337 338 336 333 329 325 324 321 316 311 307 302 299 297 295 293 291 290 290 289 287 286 284 281 280 280 281 281 279 276 273 270 268 267 268 268 266 266 267 268 267 267 266 266 266 266 268 270 271 270 269 270 272 261 240 223 212 207 207 207
160 157 155 156 155 151 146 142 138 134 131 131 130 124 114 98 93 292 293 286 287 319 336 332 329 332 331 328 328 326 322 320 318 314 310 308 303 299 296 293 290 290 290 291 290 287 286 284 281 279 279 280 280 277 275 272 269 267 265 264 264 263 265 266 266 266 265 264 264 264 266 269 268 265 263 261 262 265 261 246 231 218 211 213 207
154 148 146 145 144 145 146 139 132 128 124 118 111 104 96 6 270 263 270 271 281 320 336 333 329 328 326 325 326 326 323 319 317 313 310 307 304 301 298 293 292 292 292 290 289 287 285 283 281 280 279 279 277 275 273 271 269 267 264 260 259 261 265 266 264 262 262 262 262 263 264 266 264 261 262 263 262 265 267 252 234 224 220 217 208
142 140 142 143 140 138 136 129 121 116 114 115 122 150 200 236 244 249 260 268 286 316 327 328 324 320 320 322 324 326 325 320 315 313 311 309 307 303 299 295 294 294 292 290 288 286 285 282 282 281 280 279 277 275 272 270 269 268 264 260 259 262 263 263 262 261 260 259 260 262 262 263 264 265 267 268 264 266 271 260 238 228 226 222 213
136 137 138 137 132 126 121 117 114 113 115 124 138 169 208 232 246 252 263 279 297 313 319 319 316 311 314 321 325 327 326 321 315 314 314 312 309 305 299 295 295 294 291 289 286 284 283 282 281 281 280 279 277 276 274 272 269 267 265 263 262 261 260 259 259 258 257 256 257 258 259 261 262 264 265 265 262 262 269 267 247 232 229 229 224
135 134 129 126 123 120 117 113 113 115 118 122 133 177 226 240 251 257 268 291 303 309 311 309 305 304 312 321 326 327 326 323 319 317 315 314 311 305 299 296 294 292 288 285 284 284 283 282 281 280 279 278 277 275 274 272 268 266 266 265 264 262 258 256 255 254 253 254 254 254 254 255 256 260 263 263 262 259 263 270 258 239 231 231 230
134 128 125 126 125 123 122 119 121 126 124 131 152 199 237 241 244 253 271 289 296 298 299 296 294 302 313 320 326 328 328 326 324 320 317 314 311 306 301 298 295 291 287 284 284 283 282 282 281 281 279 277 275 274 271 269 267 265 264 264 264 262 256 251 249 249 249 249 249 249 251 252 252 256 260 262 265 262 261 271 268 247 234 230 228
128 124 125 129 130 130 130 129 135 140 139 149 167 189 222 229 234 246 263 275 282 288 290 287 288 302 314 321 326 330 330 328 326 322 319 315 310 306 303 299 296 293 289 285 284 283 283 282 282 281 279 276 275 273 271 268 267 265 263 261 260 258 254 247 244 243 244 245 246 247 249 251 252 256 260 264 267 265 261 268 268 248 232 227 224
124 127 131 135 136 136 136 137 147 157 161 168 177 186 208 220 230 242 254 265 278 285 284 280 285 305 318 324 328 330 331 329 325 322 320 315 311 308 305 302 299 297 292 289 288 287 286 284 283 281 279 277 275 272 270 269 267 265 263 259 254 251 249 244 240 238 239 242 244 245 247 250 253 256 260 263 263 259 256 258 254 236 221 216 211
131 136 138 139 139 140 141 146 159 171 177 181 183 186 202 219 231 241 252 266 281 287 283 278 287 309 321 325 328 330 330 329 326 323 321 316 313 311 308 305 303 300 296 293 291 290 288 286 285 282 279 277 275 271 268 267 265 261 257 253 248 244 242 240 237 236 238 240 242 244 246 248 251 253 255 256 255 252 249 246 237 220 207 201 193
138 139 138 137 140 145 150 159 169 176 179 179 177 181 203 222 234 250 269 281 291 295 289 281 290 312 321 323 326 329 330 329 326 324 321 318 316 315 312 309 307 303 300 297 295 294 292 289 286 283 279 276 273 269 265 261 257 254 250 246 243 240 238 237 236 236 237 239 240 242 242 241 244 248 250 249 247 245 242 235 223 206 193 185 174
138 136 135 137 144 153 161 169 174 173 170 166 165 184 209 223 241 269 295 306 307 303 295 285 292 310 320 323 326 328 328 328 327 326 324 323 321 318 315 314 311 307 304 303 300 297 293 288 284 280 276 273 268 264 260 256 251 248 244 240 238 236 234 232 232 233 234 236 237 236 235 235 238 242 244 242 239 238 233 222 208 194 184 177 169
134 134 136 142 152 160 168 173 174 170 161 155 163 192 205 213 259 306 328 334 322 306 295 289 294 304 313 324 332 332 328 329 330 330 330 329 327 324 320 319 317 314 313 313 307 298 291 286 281 277 273 269 265 261 257 252 246 241 238 235 232 230 229 228 228 229 230 231 231 231 230 230 232 235 235 232 229 225 218 209 197 185 178 172 164
132 135 140 147 159 167 172 173 173 169 158 148 157 181 194 218 337 342 346 344 328 309 297 293 297 303 308 320 331 334 333 334 335 335 335 334 332 329 326 325 325 324 324 321 312 302 296 291 285 281 277 272 267 262 257 251 243 238 234 229 226 225 225 225 225 226 226 225 226 226 225 226 226 226 224 221 216 208 201 195 188 181 177 171 163
135 139 142 149 160 171 174 172 172 170 162 154 154 165 190 324 351 357 356 346 331 318 306 298 298 304 312 322 329 332 335 338 339 339 340 339 336 334 332 332 333 335 335 330 319 310 308 305 298 296 293 285 277 269 259 250 244 237 230 226 223 222 222 222 222 221 220 219 219 218 219 220 220 218 215 210 203 192 185 181 179 175 171 165 159
139 138 136 135 143 161 174 175 175 172 164 157 146 133 141 320 334 347 358 357 349 341 332 318 309 310 318 327 332 333 337 341 342 342 344 343 341 339 338 338 340 343 342 337 328 320 319 317 313 310 306 300 294 282 265 252 245 238 231 227 225 223 223 223 221 218 214 213 211 210 211 214 213 210 205 199 190 182 176 173 171 165 157 150 148
139 135 130 128 134 153 169 174 174 168 162 155 138 124 122 330 328 332 342 349 351 354 356 349 339 330 329 333 335 337 342 345 345 345 346 346 346 345 343 343 346 349 347 342 335 329 328 326 322 319 315 311 311 303 279 257 247 239 233 230 228 227 226 222 218 216 215 214 211 209 209 209 207 200 192 184 178 174 170 166 161 156 150 144 142
138 134 129 129 136 150 160 165 166 165 165 164 155 159 200 298 341 343 340 336 333 341 353 356 353 346 340 338 338 343 347 349 348 347 349 350 351 351 350 349 349 349 348 346 342 337 336 332 329 327 326 324 325 323 302 270 252 242 236 234 231 228 225 219 214 214 215 214 213 210 207 205 200 192 181 173 168 166 162 160 157 153 147 142 139
135 132 129 130 137 147 152 153 150 153 163 172 179 211 237 258 325 346 343 334 326 332 346 353 353 351 350 346 343 346 352 354 351 349 352 354 356 356 354 351 348 345 344 344 344 342 341 339 337 336 336 336 338 337 323 291 265 250 243 241 238 234 230 224 218 214 211 208 207 204 199 195 188 180 171 164 161 159 155 152 150 146 143 140 137
128 127 127 130 138 143 142 138 134 143 166 181 197 225 237 253 313 334 334 333 329 332 345 352 351 350 352 351 349 352 357 358 355 354 356 358 359 360 357 353 350 346 344 344 345 345 345 344 344 343 344 346 349 350 343 326 295 262 246 242 236 230 225 218 210 202 196 192 190 187 184 179 174 168 160 152 149 147 146 143 140 137 137 137 135
117 119 124 132 139 140 135 130 132 155 184 198 213 230 242 274 311 320 327 335 333 335 348 355 354 351 351 350 351 356 360 0 359 358 358 359 0 360 358 356 354 350 347 347 349 349 349 349 349 350 352 356 1 3 1 357 349 291 227 205 188 185 184 182 179 176 173 170 168 168 166 163 161 159 155 148 143 141 140 138 135 132 133 134 135
116 120 127 134 138 138 137 137 144 175 196 210 223 233 262 302 314 319 326 333 335 340 351 357 357 355 353 351 354 359 2 2 359 357 355 356 358 359 358 357 356 354 353 353 354 354 353 353 355 358 2 6 11 14 15 16 24 49 124 136 133 136 142 145 146 149 150 150 150 152 153 152 152 152 149 144 140 137 136 136 135 134 134 133 131
118 119 124 131 134 139 147 153 165 196 208 222 242 267 296 308 311 313 322 332 343 354 360 2 1 359 355 353 359 4 5 2 359 356 354 354 357 359 1 360 358 357 357 357 357 358 357 358 2 7 11 14 18 22 25 29 39 58 88 110 115 117 122 128 131 132 134 137 140 142 142 143 143 141 138 137 136 135 134 134 134 133 131 129 126
110 105 105 114 127 142 153 154 85 56 206 245 285 306 313 316 315 312 320 332 345 2 7 6 5 3 359 357 2 8 9 6 2 360 358 358 358 1 3 4 3 2 2 2 2 3 3 6 11 15 18 21 25 28 32 37 46 59 75 92 103 109 114 118 121 124 127 129 133 135 135 136 136 134 132 132 132 131 130 129 128 127 126 125 124
104 97 91 97 113 126 117 86 75 79 80 76 64 49 32 23 15 355 344 346 350 7 13 11 8 6 4 2 4 9 11 12 9 5 4 4 3 5 7 8 8 9 9 9 9 9 10 14 18 22 25 28 30 33 36 39 46 58 71 83 93 101 109 114 117 121 123 124 126 128 129 131 131 131 130 130 128 127 126 126 125 124 123 123 123
100 94 89 87 87 87 87 88 90 87 81 77 74 68 62 57 49 36 21 8 353 6 17 16 13 11 8 7 7 8 10 14 14 11 10 9 8 9 10 12 15 17 17 17 18 19 20 21 23 28 33 35 36 39 42 44 50 57 67 78 85 92 102 111 116 121 123 123 123 125 126 127 128 128 128 128 127 125 124 124 123 122 121 120 120
97 95 92 89 85 84 85 85 85 84 81 79 78 74 69 63 54 44 37 32 23 8 7 7 8 8 8 8 10 9 9 14 16 16 14 14 14 14 14 16 20 23 24 24 26 28 29 28 29 33 38 41 43 47 50 52 57 62 66 75 83 87 94 105 114 120 123 123 122 122 123 124 125 126 126 127 126 125 124 124 123 121 119 118 117
92 92 91 88 84 80 79 78 79 81 81 79 77 73 67 62 55 50 48 47 45 37 23 16 15 15 12 11 11 9 7 11 17 19 18 17 17 18 19 20 25 28 29 31 33 35 36 35 34 37 41 43 47 52 56 58 63 67 70 76 83 86 91 102 112 119 122 122 121 122 122 122 123 124 124 125 125 124 123 123 122 120 118 117 117
86 85 84 82 79 76 74 73 74 75 75 76 74 70 65 62 58 54 52 51 48 44 39 35 34 33 28 22 16 10 5 5 12 20 22 20 19 20 20 23 27 31 34 37 40 42 44 43 42 43 45 47 50 55 59 63 68 73 76 81 86 90 96 104 110 114 117 118 119 119 119 118 119 121 122 122 122 121 120 120 120 120 120 121 122
82 81 79 77 76 74 72 70 71 71 71 72 71 68 64 62 58 55 53 50 47 44 42 39 39 38 36 31 27 21 13 6 7 16 22 23 22 20 20 23 29 33 37 41 44 47 50 51 51 51 52 53 56 58 61 66 72 76 79 84 89 94 100 105 108 110 112 115 116 117 117 116 117 119 120 120 120 119 119 120 122 123 124 125 126
81 80 78 76 74 72 70 68 68 67 66 67 67 66 64 61 57 53 50 47 44 41 38 36 36 36 36 35 33 31 27 21 16 16 20 23 25 24 24 26 31 37 42 45 48 50 53 55 57 59 59 59 61 63 65 69 74 78 81 85 91 97 103 106 107 108 110 112 113 114 114 115 116 118 119 119 119 119 120 121 123 124 124 125 126
80 79 78 76 74 71 68 67 65 63 61 61 60 59 57 56 53 50 47 45 43 39 35 33 32 33 34 34 33 33 32 29 25 22 21 22 25 27 29 33 39 45 49 50 51 54 56 59 60 62 64 65 66 68 70 73 77 80 83 88 94 100 104 106 107 109 110 110 111 111 112 112 113 114 115 116 117 117 118 119 121 123 123 124 126
79 79 78 76 75 73 71 68 65 62 58 55 52 49 47 46 43 41 39 38 36 33 30 29 30 31 32 32 32 33 34 33 30 28 25 23 26 29 32 38 47 50 48 46 47 53 59 62 63 64 66 67 69 72 74 77 80 83 87 92 97 102 105 106 108 110 111 110 110 111 111 111 110 111 112 114 115 116 117 118 120 122 123 125 126
77 77 76 75 73 72 70 67 63 58 54 51 47 45 42 39 33 30 29 27 24 20 19 19 22 26 29 30 30 32 33 34 35 34 31 28 30 33 33 38 43 42 38 38 43 50 56 61 64 66 68 69 72 74 77 80 83 86 89 92 96 100 104 106 109 111 113 113 112 112 112 111 110 110 110 112 114 115 117 119 121 122 124 125 127